Find Starlink 1718

NORAD ID: 46674 Int'l Des: 2020-073 Owner: SPXS Country: US Constellation: starlink operational
LEOCIRCULAR

Live Position

Loading 3D Globe...

About Starlink 1718

Description loading...

Upcoming Passes

Passes for default location (London). Set your location on the main map for personalized predictions.

Altitude History

Loading altitude history...

Two-Line Element Set

1 46674U 20073E 26121.56557363 .00086767 00000-0 80990-3 0 9994
2 46674 53.0448 329.8482 0004881 144.2653 215.8690 15.66592462305583
Epoch: May 1, 2026 • Age: 4 hours

Current Status

Altitude 370.1 km
Velocity 7.69 km/s
Sub-Earth Point 44.33°N, 14.63°W
Launch Date Oct 18, 2020
Age 5.5 years
Type internet

Technical Details

Classification Payload
Mass 260.00 kg
Dry Mass 248.00 kg
Total Mass 260.00 kg
Length 0.20 m
Diameter 2.80 m
Span 9.00 m
Shape Box + pan
Manufacturer SPXS
Bus Type Starlink
Phase Status In Orbit
Owner/State SPXS/US

Most Searched